Zurück zum Katalog

STARLINK-37875

AktivKommunikationVLEO
NORAD 69967·PAYLOAD·🇺🇸 United States

Gestartet Jul 9, 2026 von Cape Canaveral Space Force Station

Loading…

Nächste Überflüge (nächste 24 Stunden)

TLE

AktuellSource: CelesTrak SupGP

Epoche: Sep 15, 2026, 04:05 UTC

1 69967C 26157AA  26258.17062500  .00072509  00000+0  21420-2 0  2583
2 69967  53.1601 358.5101 0001062  87.2321   8.9510 15.34358390    15

Verfolge STARLINK-37875 in Echtzeit mit AllMySat

Download on the App Store